Kodiak, AK

7:16 PM AKDT on September 19, 2017 (GMT -0800)
Kodiak

Weather History for PADQ - September, 2013

Change the Weather History Date:

Thursday, September 26, 2013

  Actual Average Record
Temperature  
Mean Temperature 51 °F 46 °F  
Max Temperature 56 °F 52 °F 62 °F (1993)
Min Temperature 45 °F 40 °F 26 °F (1992)
Degree Days  
Heating Degree Days 14 19  
Month to date heating degree days 363 390  
Since 1 July heating degree days 842 1023  
Cooling Degree Days 0 0  
Month to date cooling degree days 0 0  
Year to date cooling degree days 6 1  
Moisture  
Dew Point 44 °F    
Average Humidity 0    
Maximum Humidity 0    
Minimum Humidity 0    
Precipitation  
Precipitation 0.18 in 0.28 in 2.54 in (1985)
Month to date precipitation 6.50 6.19  
Year to date precipitation 46.41 52.98  
Snow  
Snow 0.00 in 0.00 in - ()
Month to date snowfall 0.0 0.0  
Since 1 July snowfall 0.0 0.0  
Since 1 September snowfall 0.0 0.0  
Snow Depth 0.00 in    
Sea Level Pressure  
Sea Level Pressure 29.49 in    
Wind  
Wind Speed 8 mph (NW)    
Max Wind Speed 18 mph    
Max Gust Speed 25 mph    
Visibility 9 miles    
Events Rain    
T = Trace of Precipitation, MM = Missing Value Source: NWS Daily Summary

Daily Weather History Graph

Daily Weather History Graph

Search for Another Location

Airport or City:

Trip Planner

Search our weather history database for the weather conditions in past years. The results will help you decide how hot, cold, wet, or windy it might be!

Date:

Astronomy

Sep. 26, 2013 Rise Set
Actual Time 8:04 AM AKDT 7:56 PM AKDT
Civil Twilight 7:25 AM AKDT 8:35 PM AKDT
Nautical Twilight 6:39 AM AKDT 9:21 PM AKDT
Astronomical Twilight 5:50 AM AKDT 10:09 PM AKDT
Moon No Moon Rise 4:09 PM AKDT (9/26)
Length of Visible Light 13h 09m
Length of Day
11h 52m
Waning Gibbous, 53% of the Moon is Illuminated
Sep 26
Waning Gibbous
Sep 26
Last Quarter
Oct 4
New
Oct 11
First Quarter
Oct 18
Full

Hourly Weather History & Observations

Time (AKDT) Temp. Windchill Dew Point Humidity Pressure Visibility Wind Dir Wind Speed Gust Speed Precip Events Conditions
12:38 AM 46.4 °F 43.5 °F 44.6 °F 93% 29.53 in 10.0 mi NW 5.8 mph - N/A   Overcast
12:53 AM 48.0 °F - 44.1 °F 86% 29.53 in 10.0 mi NW 4.6 mph - N/A   Overcast
1:21 AM 48.2 °F - 44.6 °F 87% 29.54 in 10.0 mi Variable 4.6 mph - 0.00 in   Overcast
1:53 AM 48.9 °F - 44.1 °F 83% 29.54 in 10.0 mi Calm Calm - 0.00 in   Overcast
2:53 AM 48.9 °F - 44.1 °F 83% 29.55 in 10.0 mi West 3.5 mph - N/A   Overcast
3:53 AM 48.9 °F - 44.1 °F 83% 29.57 in 10.0 mi West 6.9 mph - N/A   Overcast
4:53 AM 48.9 °F - 44.1 °F 83% 29.59 in 10.0 mi WNW 5.8 mph - 0.00 in   Overcast
5:35 AM 50.0 °F - 44.6 °F 82% 29.60 in 10.0 mi WNW 9.2 mph - N/A   Overcast
5:53 AM 50.0 °F - 44.1 °F 80% 29.60 in 10.0 mi WNW 9.2 mph - N/A   Mostly Cloudy
6:53 AM 50.0 °F - 43.0 °F 77% 29.62 in 10.0 mi WNW 10.4 mph - N/A   Overcast
7:51 AM 50.0 °F - 42.8 °F 76% 29.64 in 10.0 mi WNW 10.4 mph - N/A   Overcast
7:53 AM 50.0 °F - 43.0 °F 77% 29.64 in 10.0 mi West 9.2 mph - N/A   Overcast
8:53 AM 50.0 °F - 43.0 °F 77% 29.66 in 10.0 mi WNW 6.9 mph - N/A   Mostly Cloudy
9:53 AM 53.1 °F - 43.0 °F 69% 29.67 in 10.0 mi West 10.4 mph - N/A   Scattered Clouds
10:53 AM 53.1 °F - 42.1 °F 66% 29.67 in 10.0 mi West 6.9 mph - N/A   Scattered Clouds
11:53 AM 54.0 °F - 45.0 °F 72% 29.66 in 10.0 mi East 6.9 mph - N/A   Scattered Clouds
12:53 PM 54.0 °F - 44.1 °F 69% 29.65 in 10.0 mi NNE 5.8 mph - N/A   Scattered Clouds
1:53 PM 53.1 °F - 45.0 °F 74% 29.64 in 10.0 mi NE 9.2 mph - N/A   Mostly Cloudy
2:53 PM 53.1 °F - 45.0 °F 74% 29.60 in 10.0 mi NNE 8.1 mph - N/A   Mostly Cloudy
3:53 PM 54.0 °F - 45.0 °F 72% 29.57 in 10.0 mi ENE 6.9 mph - N/A   Mostly Cloudy
4:53 PM 53.1 °F - 45.0 °F 74% 29.52 in 10.0 mi NE 4.6 mph - N/A   Mostly Cloudy
5:53 PM 52.0 °F - 39.0 °F 61% 29.47 in 10.0 mi SSW 9.2 mph 18.4 mph N/A   Mostly Cloudy
6:53 PM 48.9 °F - 39.0 °F 69% 29.45 in 10.0 mi South 15.0 mph 23.0 mph N/A   Overcast
7:53 PM 46.0 °F 41.9 °F 39.9 °F 79% 29.38 in 10.0 mi SE 8.1 mph - 0.00 in Rain Light Rain
8:53 PM 45.0 °F 38.2 °F 42.1 °F 90% 29.31 in 6.0 mi SE 15.0 mph - 0.04 in Rain Light Rain
9:53 PM 46.0 °F 40.2 °F 44.1 °F 93% 29.19 in 5.0 mi ESE 12.7 mph - 0.03 in Rain Light Rain
10:00 PM 46.4 °F 40.7 °F 44.6 °F 93% 29.17 in 4.0 mi ESE 12.7 mph - 0.01 in Rain Light Rain
10:53 PM 48.0 °F - 46.0 °F 93% 29.08 in 9.0 mi SE 13.8 mph - 0.06 in Rain Light Rain
11:30 PM 48.2 °F - 46.4 °F 93% 29.04 in 10.0 mi Calm Calm - 0.00 in Rain Light Rain
11:53 PM 48.9 °F - 46.0 °F 90% 29.02 in 10.0 mi Calm Calm - 0.01 in Rain Light Rain